EWG27Y EHRD-EDDF

Flight info

Callsign EWG27Y
Flight time 0h 44m
Altitude 35000
Route LUNIX Z739 MISGO DCT DIXAT T149 LIPMI T911 ROLIS ROLIS5A
Aircraft A20N/M-SDE2E3FGHIRWXY/LB1

Departure

Time 2026-05-03 21:27
Airport Rotterdam The Hague Airport (EHRD)

Arrival

Time 2026-05-03 22:12
Airport Frankfurt Main Airport (EDDF)
Time Latitude Longitude Altitude Speed Heading
2026-05-03 21:14 51.95020 4.43501 0 ft 0 kts 326°
2026-05-03 21:22 51.95020 4.43500 0 ft 1 kts 326°
2026-05-03 21:22 51.95036 4.43487 0 ft 4 kts 337°
2026-05-03 21:22 51.95063 4.43508 0 ft 6 kts 51°
2026-05-03 21:22 51.95089 4.43576 0 ft 8 kts 60°
2026-05-03 21:23 51.95140 4.43613 0 ft 10 kts 344°
2026-05-03 21:23 51.95206 4.43549 0 ft 12 kts 325°
2026-05-03 21:23 51.95287 4.43528 0 ft 14 kts 35°
2026-05-03 21:23 51.95348 4.43660 0 ft 16 kts 57°
2026-05-03 21:24 51.95410 4.43818 0 ft 18 kts 57°
2026-05-03 21:24 51.95478 4.43992 0 ft 19 kts 57°
2026-05-03 21:24 51.95554 4.44183 0 ft 21 kts 57°
2026-05-03 21:24 51.95637 4.44386 0 ft 22 kts 57°
2026-05-03 21:25 51.95722 4.44605 0 ft 24 kts 58°
2026-05-03 21:25 51.95814 4.44834 0 ft 25 kts 57°
2026-05-03 21:25 51.95909 4.45073 0 ft 26 kts 57°
2026-05-03 21:25 51.96010 4.45322 0 ft 27 kts 56°
2026-05-03 21:26 51.96112 4.45575 0 ft 21 kts 57°
2026-05-03 21:26 51.96212 4.45611 1 ft 17 kts 314°
2026-05-03 21:26 51.96262 4.45473 0 ft 11 kts 278°
2026-05-03 21:26 51.96253 4.45433 0 ft 3 kts 237°
2026-05-03 21:27 51.96144 4.45166 1 ft 65 kts 237°
2026-05-03 21:27 51.95762 4.44216 -1 ft 131 kts 238°
2026-05-03 21:27 51.95185 4.42760 204 ft 163 kts 236°
2026-05-03 21:27 51.94583 4.41229 971 ft 160 kts 237°
2026-05-03 21:28 51.93998 4.39705 1746 ft 159 kts 239°
2026-05-03 21:28 51.93691 4.37957 2386 ft 168 kts 270°
2026-05-03 21:28 51.94129 4.36112 2857 ft 191 kts 309°
2026-05-03 21:28 51.95320 4.34940 3278 ft 218 kts 345°
2026-05-03 21:29 51.96891 4.35033 3669 ft 244 kts 18°
2026-05-03 21:29 51.98334 4.36576 4362 ft 255 kts 50°
2026-05-03 21:29 51.99313 4.38987 5224 ft 258 kts 60°
2026-05-03 21:29 52.00074 4.41639 6095 ft 261 kts 73°
2026-05-03 21:30 52.00445 4.44528 6908 ft 263 kts 86°
2026-05-03 21:30 52.00664 4.47551 7471 ft 280 kts 83°
2026-05-03 21:30 52.01022 4.50746 8066 ft 292 kts 80°
2026-05-03 21:30 52.01528 4.53970 8894 ft 297 kts 69°
2026-05-03 21:31 52.02572 4.56888 9720 ft 302 kts 50°
2026-05-03 21:31 52.04043 4.59376 10332 ft 314 kts 45°
2026-05-03 21:31 52.05637 4.61998 10590 ft 337 kts 45°
2026-05-03 21:31 52.07322 4.64805 10921 ft 355 kts 46°
2026-05-03 21:32 52.09051 4.67709 11617 ft 360 kts 46°
2026-05-03 21:32 52.10799 4.70654 12351 ft 364 kts 46°
2026-05-03 21:32 52.12566 4.73639 13065 ft 369 kts 46°
2026-05-03 21:32 52.14317 4.76740 13776 ft 374 kts 52°
2026-05-03 21:33 52.15712 4.80325 14429 ft 377 kts 64°
2026-05-03 21:33 52.16639 4.84284 15045 ft 380 kts 74°
2026-05-03 21:33 52.17409 4.88423 15673 ft 384 kts 74°
2026-05-03 21:33 52.18199 4.92615 16307 ft 389 kts 74°
2026-05-03 21:34 52.19000 4.96854 16931 ft 392 kts 74°
2026-05-03 21:34 52.19807 5.01123 17548 ft 396 kts 74°
2026-05-03 21:34 52.20621 5.05446 18154 ft 401 kts 74°
2026-05-03 21:34 52.21443 5.09820 18703 ft 404 kts 74°
2026-05-03 21:35 52.22268 5.14221 19229 ft 408 kts 74°
2026-05-03 21:35 52.23088 5.18616 19750 ft 411 kts 75°
2026-05-03 21:35 52.23546 5.23269 20261 ft 412 kts 92°
2026-05-03 21:35 52.23196 5.27819 20755 ft 410 kts 109°
2026-05-03 21:36 52.22076 5.32058 21253 ft 406 kts 125°
2026-05-03 21:36 52.20459 5.35831 21777 ft 406 kts 131°
2026-05-03 21:36 52.18710 5.39470 22294 ft 409 kts 132°
2026-05-03 21:36 52.16956 5.43151 22816 ft 412 kts 131°
2026-05-03 21:37 52.15229 5.46906 23330 ft 416 kts 130°
2026-05-03 21:37 52.13520 5.50729 23791 ft 419 kts 130°
2026-05-03 21:37 52.11818 5.54595 24241 ft 421 kts 130°
2026-05-03 21:37 52.10113 5.58489 24676 ft 423 kts 130°
2026-05-03 21:38 52.08403 5.62396 25105 ft 425 kts 130°
2026-05-03 21:38 52.06679 5.66326 25515 ft 428 kts 131°
2026-05-03 21:38 52.04810 5.70074 25923 ft 426 kts 136°
2026-05-03 21:38 52.02855 5.73712 26319 ft 429 kts 136°
2026-05-03 21:39 52.00892 5.77368 26710 ft 431 kts 136°
2026-05-03 21:39 51.98917 5.81044 27089 ft 433 kts 136°
2026-05-03 21:39 51.97603 5.83489 27334 ft 434 kts 136°
2026-05-03 21:39 51.94969 5.88402 27807 ft 438 kts 136°
2026-05-03 21:40 51.92965 5.92145 28152 ft 440 kts 136°
2026-05-03 21:40 51.90954 5.95898 28477 ft 442 kts 136°
2026-05-03 21:40 51.88927 5.99673 28803 ft 444 kts 136°
2026-05-03 21:40 51.87582 6.02174 29018 ft 446 kts 136°
2026-05-03 21:41 51.85538 6.05969 29321 ft 448 kts 137°
2026-05-03 21:41 51.83482 6.09768 29624 ft 450 kts 137°
2026-05-03 21:41 51.81411 6.13570 29931 ft 452 kts 137°
2026-05-03 21:41 51.79324 6.17392 30191 ft 454 kts 137°
2026-05-03 21:42 51.77230 6.21223 30454 ft 456 kts 137°
2026-05-03 21:42 51.75128 6.25064 30714 ft 457 kts 137°
2026-05-03 21:42 51.73017 6.28913 30973 ft 459 kts 137°
2026-05-03 21:42 51.70897 6.32777 31287 ft 459 kts 137°
2026-05-03 21:43 51.68780 6.36628 31621 ft 459 kts 137°
2026-05-03 21:43 51.66664 6.40471 31958 ft 458 kts 137°
2026-05-03 21:43 51.64547 6.44311 32284 ft 458 kts 137°
2026-05-03 21:43 51.62432 6.48141 32597 ft 458 kts 137°
2026-05-03 21:44 51.60319 6.51963 32914 ft 457 kts 137°
2026-05-03 21:44 51.58204 6.55783 33233 ft 456 kts 137°
2026-05-03 21:44 51.56092 6.59593 33532 ft 456 kts 137°
2026-05-03 21:44 51.54007 6.63347 33839 ft 455 kts 137°
2026-05-03 21:45 51.51903 6.67131 34118 ft 454 kts 137°
2026-05-03 21:45 51.49793 6.70919 34360 ft 454 kts 137°
2026-05-03 21:45 51.47689 6.74691 34593 ft 453 kts 137°
2026-05-03 21:45 51.45588 6.78451 34829 ft 452 kts 137°
2026-05-03 21:46 51.43488 6.82202 34934 ft 452 kts 137°
2026-05-03 21:46 51.41389 6.85948 34963 ft 451 kts 137°
2026-05-03 21:46 51.37293 6.93549 34964 ft 451 kts 136°
2026-05-03 21:47 51.33123 7.01028 34963 ft 450 kts 136°
2026-05-03 21:47 51.28974 7.08504 34965 ft 449 kts 136°
2026-05-03 21:48 51.24837 7.15977 34966 ft 448 kts 136°
2026-05-03 21:48 51.20712 7.23414 34918 ft 446 kts 136°
2026-05-03 21:49 51.18656 7.27112 34599 ft 444 kts 136°
2026-05-03 21:49 51.16602 7.30801 33994 ft 446 kts 136°
2026-05-03 21:49 51.14535 7.34504 33053 ft 450 kts 137°
2026-05-03 21:49 51.12433 7.38261 31915 ft 458 kts 137°
2026-05-03 21:50 51.10289 7.42088 30758 ft 468 kts 137°
2026-05-03 21:50 51.08106 7.45983 29633 ft 474 kts 137°
2026-05-03 21:50 51.05908 7.49903 28774 ft 473 kts 137°
2026-05-03 21:50 51.03760 7.53736 28143 ft 467 kts 137°
2026-05-03 21:51 51.01610 7.57564 27491 ft 461 kts 137°
2026-05-03 21:51 50.99483 7.61342 26865 ft 456 kts 137°
2026-05-03 21:51 50.97392 7.65051 26585 ft 443 kts 137°
2026-05-03 21:51 50.95363 7.68650 26406 ft 429 kts 137°
2026-05-03 21:52 50.93389 7.72141 25953 ft 422 kts 137°
2026-05-03 21:52 50.91430 7.75592 25392 ft 419 kts 137°
2026-05-03 21:52 50.89486 7.79010 24862 ft 416 kts 137°
2026-05-03 21:52 50.87555 7.82403 24339 ft 412 kts 137°
2026-05-03 21:53 50.85668 7.85719 23828 ft 409 kts 137°
2026-05-03 21:53 50.83772 7.89046 23285 ft 406 kts 137°
2026-05-03 21:53 50.81889 7.92345 22685 ft 403 kts 137°
2026-05-03 21:53 50.80014 7.95625 22068 ft 400 kts 137°
2026-05-03 21:54 50.78156 7.98872 21501 ft 397 kts 137°
2026-05-03 21:54 50.76305 8.02102 20930 ft 395 kts 137°
2026-05-03 21:54 50.74467 8.05306 20366 ft 392 kts 137°
2026-05-03 21:54 50.72635 8.08494 19811 ft 389 kts 137°
2026-05-03 21:55 50.70821 8.11645 19293 ft 386 kts 137°
2026-05-03 21:55 50.69021 8.14772 18745 ft 384 kts 137°
2026-05-03 21:55 50.67223 8.17888 18206 ft 382 kts 137°
2026-05-03 21:55 50.65442 8.20975 17644 ft 379 kts 137°
2026-05-03 21:56 50.63698 8.23993 17114 ft 376 kts 137°
2026-05-03 21:56 50.61942 8.27029 16599 ft 372 kts 137°
2026-05-03 21:56 50.60204 8.30031 16086 ft 370 kts 137°
2026-05-03 21:56 50.58477 8.33009 15603 ft 367 kts 137°
2026-05-03 21:57 50.56763 8.35962 15107 ft 364 kts 137°
2026-05-03 21:57 50.55063 8.38886 14629 ft 361 kts 136°
2026-05-03 21:57 50.53374 8.41788 14156 ft 359 kts 136°
2026-05-03 21:57 50.51694 8.44671 13677 ft 356 kts 136°
2026-05-03 21:58 50.50024 8.47534 13165 ft 353 kts 136°
2026-05-03 21:58 50.48369 8.50370 12676 ft 350 kts 136°
2026-05-03 21:58 50.46724 8.53184 12180 ft 348 kts 136°
2026-05-03 21:58 50.45095 8.55968 11695 ft 345 kts 136°
2026-05-03 21:59 50.43497 8.58696 11226 ft 343 kts 137°
2026-05-03 21:59 50.41890 8.61438 10757 ft 340 kts 137°
2026-05-03 21:59 50.40295 8.64156 10383 ft 335 kts 137°
2026-05-03 21:59 50.38747 8.66798 10245 ft 322 kts 137°
2026-05-03 22:00 50.37251 8.69350 10005 ft 314 kts 137°
2026-05-03 22:00 50.35777 8.71851 9575 ft 312 kts 138°
2026-05-03 22:00 50.34311 8.74333 9134 ft 310 kts 138°
2026-05-03 22:00 50.32850 8.76806 8693 ft 308 kts 138°
2026-05-03 22:01 50.31402 8.79256 8265 ft 306 kts 138°
2026-05-03 22:01 50.29972 8.81675 7853 ft 304 kts 138°
2026-05-03 22:01 50.28530 8.84112 7435 ft 302 kts 138°
2026-05-03 22:01 50.27123 8.86487 7020 ft 300 kts 138°
2026-05-03 22:02 50.25709 8.88874 6617 ft 298 kts 138°
2026-05-03 22:02 50.24304 8.91243 6213 ft 297 kts 138°
2026-05-03 22:02 50.22901 8.93603 5725 ft 297 kts 138°
2026-05-03 22:02 50.21520 8.95929 5576 ft 285 kts 138°
2026-05-03 22:03 50.20201 8.98157 5453 ft 273 kts 138°
2026-05-03 22:03 50.18825 9.00059 5340 ft 253 kts 158°
2026-05-03 22:03 50.17230 9.00798 5225 ft 230 kts 182°
2026-05-03 22:03 50.15716 9.00524 5114 ft 211 kts 197°
2026-05-03 22:04 50.14321 9.00074 5045 ft 197 kts 195°
2026-05-03 22:04 50.13048 8.99695 5025 ft 176 kts 195°
2026-05-03 22:04 50.11906 8.99364 5032 ft 166 kts 196°
2026-05-03 22:04 50.10757 8.99017 5023 ft 168 kts 197°
2026-05-03 22:05 50.09614 8.98670 5029 ft 167 kts 197°
2026-05-03 22:05 50.08614 8.97923 5025 ft 161 kts 226°
2026-05-03 22:05 50.08063 8.96425 5007 ft 162 kts 251°
2026-05-03 22:05 50.07721 8.94744 4903 ft 163 kts 251°
2026-05-03 22:06 50.07370 8.93070 4789 ft 163 kts 250°
2026-05-03 22:06 50.07014 8.91396 4586 ft 163 kts 250°
2026-05-03 22:06 50.06658 8.89744 4358 ft 161 kts 251°
2026-05-03 22:06 50.06301 8.88074 4154 ft 163 kts 252°
2026-05-03 22:07 50.06104 8.86344 3935 ft 163 kts 265°
2026-05-03 22:07 50.06166 8.84582 3716 ft 164 kts 273°
2026-05-03 22:07 50.06271 8.82821 3496 ft 163 kts 272°
2026-05-03 22:07 50.06364 8.81068 3281 ft 162 kts 272°
2026-05-03 22:08 50.06453 8.79318 3064 ft 162 kts 272°
2026-05-03 22:08 50.06540 8.77556 2847 ft 164 kts 272°
2026-05-03 22:08 50.06629 8.75835 2704 ft 150 kts 272°
2026-05-03 22:08 50.06709 8.74326 2522 ft 134 kts 272°
2026-05-03 22:09 50.06782 8.72898 2266 ft 131 kts 271°
2026-05-03 22:09 50.06850 8.71444 2090 ft 136 kts 269°
2026-05-03 22:09 50.06728 8.70014 1911 ft 134 kts 251°
2026-05-03 22:10 50.06056 8.67324 1568 ft 135 kts 247°
2026-05-03 22:10 50.05721 8.65960 1394 ft 134 kts 248°
2026-05-03 22:10 50.05400 8.64574 1194 ft 136 kts 249°
2026-05-03 22:10 50.05085 8.63189 1004 ft 136 kts 249°
2026-05-03 22:11 50.04755 8.61805 833 ft 137 kts 249°
2026-05-03 22:11 50.04426 8.60418 652 ft 136 kts 248°
2026-05-03 22:11 50.04099 8.59036 461 ft 136 kts 248°
2026-05-03 22:11 50.03772 8.57685 362 ft 120 kts 250°
2026-05-03 22:12 50.03550 8.56751 349 ft 70 kts 249°
2026-05-03 22:12 50.03443 8.56280 353 ft 33 kts 259°
2026-05-03 22:12 50.03450 8.55913 352 ft 35 kts 281°
2026-05-03 22:12 50.03472 8.55736 347 ft 0 kts 280°
2026-05-03 22:13 50.03482 8.55721 350 ft 6 kts 323°
2026-05-03 22:13 50.03532 8.55714 352 ft 8 kts 22°
2026-05-03 22:14 50.03571 8.55801 353 ft 12 kts 68°
2026-05-03 22:14 50.03604 8.55932 351 ft 14 kts 69°
2026-05-03 22:14 50.03639 8.56079 355 ft 15 kts 69°
2026-05-03 22:14 50.03677 8.56235 357 ft 16 kts 70°
2026-05-03 22:15 50.03718 8.56412 356 ft 18 kts 71°
2026-05-03 22:15 50.03760 8.56608 354 ft 20 kts 71°
2026-05-03 22:15 50.03809 8.56818 361 ft 21 kts 69°
2026-05-03 22:15 50.03862 8.57035 358 ft 21 kts 69°
2026-05-03 22:16 50.03914 8.57245 362 ft 20 kts 69°
2026-05-03 22:16 50.03964 8.57446 366 ft 20 kts 69°
2026-05-03 22:16 50.04013 8.57651 369 ft 21 kts 70°
2026-05-03 22:16 50.04063 8.57867 368 ft 22 kts 71°
2026-05-03 22:17 50.04119 8.58090 368 ft 21 kts 56°
2026-05-03 22:17 50.04247 8.58206 369 ft 20 kts
2026-05-03 22:17 50.04285 8.58201 366 ft 0 kts 346°
2026-05-03 22:17 50.04287 8.58201 366 ft 2 kts 346°
2026-05-03 22:18 50.04317 8.58187 369 ft 7 kts 343°
2026-05-03 22:18 50.04388 8.58144 370 ft 15 kts 335°
2026-05-03 22:18 50.04511 8.58075 369 ft 21 kts 340°
2026-05-03 22:18 50.04667 8.57982 363 ft 26 kts 339°
2026-05-03 22:19 50.04824 8.57876 363 ft 20 kts 326°
2026-05-03 22:19 50.04886 8.57683 356 ft 21 kts 292°
2026-05-03 22:19 50.04934 8.57518 362 ft 5 kts 283°
2026-05-03 22:19 50.04920 8.57485 356 ft 5 kts 221°
2026-05-03 22:20 50.04889 8.57448 357 ft 4 kts 217°
2026-05-03 22:20 50.04885 8.57442 359 ft 0 kts 218°